#timestamp,LO_Frequency,Hit,StdDev 
1509584415.7,286046988.5,N
1509584435.5,286046991.0,N
1509584455.4,286046990.3,N
1509584475.2,286046994.7,N
1509584495.0,286046996.0,N
1509584495.9,286046996.0,N
1509584515.8,286046999.0,N
1509584535.6,286047002.3,N
1509584555.4,286047001.5,N
1509584575.3,286047003.8,N
1509584595.1,286047007.2,N
1509584615.8,286047008.3,N
1509584635.7,286047010.5,N
1509584655.5,286047013.3,N
1509584675.3,286047013.5,N
1509584695.2,286047013.4,N
1509584715.0,286047012.0,N
1509584715.9,286047012.0,N
1509584735.8,286047011.8,N
1509584755.6,286047010.0,N
1509584775.4,286047010.3,N
1509584795.3,286047009.8,N
1509584815.1,286047008.2,N
1509584816.0,286047008.2,N
1509584835.8,286047006.6,N
1509584855.7,286047008.6,N
1509584875.5,286047006.1,N
1509584895.3,286047010.6,N
1509584915.2,286047009.4,N
1509584935.0,286047009.3,N
1509584935.9,286047009.3,N
1509584955.8,286047011.4,N
1509584975.6,286047011.9,N
1509584995.4,286047012.1,N
1509585015.2,286047007.7,N
1509585035.1,286047008.7,N
1509585036.0,286047008.7,N
1509585055.8,286047007.1,N
1509585075.7,286047007.2,N
1509585095.5,286047005.7,N
1509585115.3,286047006.7,Y
1509585135.2,286046995.4,P
1509585155.9,286046994.7,N
1509585175.7,286046987.0,N
1509585195.6,286046991.1,N
1509585215.4,286046992.6,N
1509585235.2,286046992.1,N
1509585255.1,286046990.6,N
1509585256.0,286046990.6,N
1509585275.8,286046993.1,N
1509585295.6,286046991.8,N
1509585315.5,286046993.0,N
1509585335.3,286046992.8,N
1509585355.1,286046994.3,N
1509585375.9,286046999.1,N
1509585395.7,286046994.9,N
1509585415.5,286046993.9,N
1509585435.4,286046995.7,N
1509585455.2,286046997.2,N
1509585475.0,286046995.9,N
1509585475.9,286046995.9,N
1509585495.8,286046997.8,N
1509585515.6,286046995.3,N
1509585535.4,286046992.2,N
1509585555.3,286046996.3,N
1509585575.1,286046994.2,N
1509585595.8,286046988.7,N
1509585615.7,286046988.5,N
1509585635.5,286046990.8,N
1509585655.3,286046994.6,N
1509585675.2,286046994.7,N
1509585695.0,286046991.9,N
1509585695.9,286046991.9,N
1509585715.8,286046995.3,N
1509585735.6,286046995.5,N
1509585755.4,286046998.6,N
1509585775.3,286047003.8,N
1509585795.1,286047001.4,N
1509585796.0,286047001.4,N
1509585815.8,286047005.8,N
1509585835.7,286047003.6,N
1509585855.5,286047000.2,N
1509585875.3,286047002.4,N
1509585895.2,286047002.8,N
1509585915.9,286047002.2,N
1509585935.7,286047003.5,N
1509585955.6,286047003.3,N
1509585975.4,286047005.7,N
1509585995.2,286047006.2,N
1509586015.1,286047004.9,N
1509586016.0,286047004.9,N
1509586035.8,286047004.9,N
1509586055.6,286047005.2,N
1509586075.5,286047003.1,N
1509586095.3,286047001.8,N
1509586115.1,286047005.8,N
1509586135.9,286047004.9,N
1509586155.7,286047005.9,N
1509586175.5,286047007.6,N
1509586195.4,286047005.2,N
1509586215.2,286047003.2,N
1509586235.0,286047005.4,N
1509586236.0,286047005.4,N
1509586255.8,286047005.3,N
1509586275.6,286047005.3,N
1509586295.5,286047004.2,N
1509586315.3,286047006.0,Y
1509586335.1,286046999.0,P
1509586355.9,286046999.2,N
1509586375.7,286047000.9,N
1509586395.5,286046999.3,N
1509586415.4,286046997.3,N
1509586435.2,286046997.5,N
1509586455.0,286046995.4,N
1509586455.9,286046995.4,N
1509586475.8,286046997.6,N
1509586495.6,286046997.5,N
1509586515.4,286046997.3,N
1509586535.3,286046995.4,N
1509586555.1,286046996.7,N
1509586575.8,286046996.5,N
1509586595.7,286046998.9,N
1509586615.5,286047000.2,N
1509586635.3,286046998.2,N
1509586655.2,286046997.6,N
1509586675.0,286046997.0,N
1509586675.9,286046997.0,N
1509586695.7,286047001.6,N
1509586715.6,286047002.4,N
1509586735.4,286047001.9,N
1509586755.2,286047000.0,N
1509586775.1,286046997.2,N
1509586776.0,286046997.2,N
1509586795.8,286046998.5,N
1509586815.7,286046996.5,N
1509586835.5,286046997.1,N
1509586855.3,286046998.8,N
1509586875.2,286046993.4,Y
1509586895.9,286046993.0,P
1509586915.7,286046988.1,P
1509586935.6,286046986.0,P
1509586955.4,286046985.1,Y
1509586975.2,286046993.0,P
1509586995.1,286046993.5,P
1509586996.0,286046993.5,P
1509587015.8,286046994.2,Y
1509587035.7,286047000.4,P
1509587055.5,286047004.3,N
1509587075.3,286047004.2,N
1509587095.2,286047003.9,N
1509587115.9,286047003.4,N
1509587135.7,286047003.7,N
1509587155.6,286046999.9,N
1509587175.4,286047000.9,N
1509587195.2,286047000.7,N
1509587215.1,286046999.8,N
1509587216.0,286046999.8,N
1509587235.8,286046998.7,N
1509587255.6,286046997.1,N
1509587275.5,286046997.1,N
1509587295.3,286046995.2,N
1509587315.1,286046994.9,N
1509587335.9,286047000.9,N
1509587355.7,286046999.9,N
1509587375.5,286046998.2,N
1509587395.4,286046996.9,N
1509587415.2,286047001.2,N
1509587435.0,286046999.2,N
1509587435.9,286046999.2,N
1509587455.8,286046997.4,N
1509587475.6,286047000.0,N
1509587495.4,286047000.1,N
1509587515.3,286047004.4,N
1509587535.1,286047002.0,N
1509587555.8,286047001.1,N
1509587575.7,286047000.3,N
1509587595.5,286046999.8,N
1509587615.3,286047002.7,N
1509587635.2,286047000.8,N
1509587655.0,286047002.8,N
1509587655.9,286047002.8,N
1509587675.8,286046998.5,N
1509587695.6,286046997.3,N
1509587715.4,286046993.3,Y
1509587735.3,286046999.0,P
1509587755.1,286046998.2,P
1509587756.0,286046998.2,P
1509587775.8,286046999.8,N
1509587795.7,286047003.8,Y
1509587815.5,286047002.9,P
1509587835.3,286047010.4,P
1509587855.2,286047012.0,N
1509587875.0,286047009.8,N
1509587875.9,286047009.8,N
1509587895.8,286047011.9,N
1509587915.6,286047012.0,N
1509587935.4,286047011.8,N
1509587955.3,286047012.0,N
1509587975.1,286047013.1,Y
1509587995.8,286047001.5,P
